Location: Forst
(46.9333°N, 15.4333°E)
Time: 15:01:50
(UTC+00:00)

X-37B - Pass Details

Date: 01 December 2020
Orbit: 383 x 391 km, 45.0° (Epoch: 27 January)

Event Time Altitude Azimuth Distance (km) Brightness Sun altitude
Rises 15:44:38 0° 227° (SW) 2,255 6.2 -5.8°
Reaches altitude 10° 15:46:54 10° 214° (SSW) 1,405 4.5 -6.2°
Maximum altitude 15:49:34 25° 156° (SSE) 821 2.3 -6.6°
Drops below altitude 10° 15:52:15 10° 98° (E) 1,414 2.9 -7.0°
Enters shadow 15:52:54 - 93° (E) 1,646 3.2 -7.1°
